Total_Precipitation_Accumulation
0.84 0.86 0.92 0.98 1.00 0.99 1.03 1.10 1.22 1.24 1.10 0.93 0.87 0.90 0.96 1.00 1.15 1.01 0.95 0.96 0.85 0.79 0.79 0.82 0.84 0.87 0.89 0.91 0.92 0.92 0.88 0.87 0.91 1.00 1.12 1.22 1.30 1.38
0.70 0.71 0.73 0.79 0.93 1.03 1.09 1.14 1.20 1.26 1.25 1.04 0.92 0.92 0.97 1.00 1.16 0.99 0.96 1.04 0.87 0.75 0.71 0.82 0.88 0.87 0.87 0.85 0.83 0.83 0.84 0.85 0.86 0.90 0.99 1.08 1.20 1.31
0.58 0.59 0.63 0.68 0.77 0.84 0.93 1.05 1.19 1.30 1.38 1.21 1.00 0.95 0.98 1.02 1.06 0.95 0.88 0.83 0.77 0.76 0.65 0.71 0.95 1.11 1.01 0.89 0.83 0.79 0.79 0.80 0.81 0.83 0.90 0.98 1.05 1.14
0.46 0.48 0.49 0.50 0.59 0.65 0.74 0.84 0.94 1.06 1.21 1.21 1.04 0.96 0.97 1.03 1.09 1.06 0.92 0.78 0.72 0.81 0.71 0.66 0.81 1.20 1.27 1.03 0.93 0.85 0.76 0.74 0.73 0.77 0.83 0.86 0.88 0.95
0.38 0.41 0.44 0.47 0.54 0.60 0.68 0.73 0.81 0.88 1.04 1.12 1.04 0.98 0.99 1.05 1.14 1.08 0.91 0.86 0.65 0.63 0.65 0.70 0.82 1.34 1.67 1.43 1.14 1.02 0.86 0.77 0.70 0.71 0.76 0.79 0.76 0.74
0.30 0.32 0.35 0.42 0.49 0.57 0.62 0.69 0.79 0.88 0.97 1.07 1.08 1.06 1.07 1.08 1.13 1.16 0.99 0.85 0.68 0.49 0.57 0.66 0.84 1.31 1.86 2.02 1.64 1.36 1.13 0.94 0.81 0.73 0.70 0.68 0.63 0.57
0.30 0.30 0.29 0.34 0.43 0.48 0.55 0.67 0.82 0.93 0.96 1.03 1.07 1.08 1.10 1.16 1.13 1.06 0.98 0.83 0.68 0.55 0.58 0.61 0.85 1.51 2.09 2.38 2.22 1.68 1.26 1.03 0.86 0.75 0.70 0.64 0.58 0.51
0.38 0.36 0.29 0.27 0.30 0.36 0.45 0.56 0.68 0.84 0.96 1.04 1.07 1.04 1.02 1.06 1.06 1.04 1.03 1.00 0.86 0.61 0.59 0.66 0.97 1.78 2.36 2.63 2.53 1.85 1.28 1.05 0.93 0.83 0.77 0.69 0.61 0.53
0.41 0.39 0.32 0.27 0.32 0.39 0.41 0.44 0.53 0.67 0.88 1.04 1.11 1.00 1.02 1.09 1.15 1.16 1.06 1.06 0.99 0.71 0.69 0.85 1.16 1.75 2.24 2.67 2.60 1.94 1.43 1.15 1.03 0.94 0.86 0.76 0.64 0.54
0.33 0.34 0.40 0.44 0.37 0.36 0.40 0.52 0.67 0.76 0.79 0.82 0.97 0.98 0.99 0.98 0.95 0.99 0.98 1.03 0.94 0.72 0.72 0.99 1.24 1.66 2.04 2.48 2.48 1.90 1.46 1.23 1.10 0.99 0.86 0.75 0.65 0.56
0.30 0.29 0.33 0.41 0.38 0.42 0.55 0.76 0.96 1.10 0.96 0.90 0.95 1.06 1.08 0.96 0.79 0.81 1.02 1.12 0.99 0.74 0.69 0.91 1.17 1.39 1.70 2.05 2.07 1.79 1.46 1.27 1.11 0.96 0.83 0.70 0.63 0.59
0.37 0.36 0.38 0.41 0.42 0.53 0.67 0.92 1.14 1.26 1.09 1.01 1.11 1.23 1.16 1.07 0.99 1.00 1.15 1.13 1.00 0.90 0.73 0.82 0.98 1.12 1.51 1.68 1.57 1.44 1.38 1.35 1.20 1.07 0.91 0.72 0.57 0.53
0.41 0.46 0.48 0.49 0.48 0.59 0.77 0.95 1.15 1.21 1.16 1.12 1.10 1.10 1.08 1.08 1.00 1.00 1.00 0.96 0.94 0.92 0.73 0.82 1.00 1.09 1.31 1.47 1.43 1.37 1.25 1.23 1.22 1.26 1.19 0.93 0.66 0.54
0.51 0.54 0.54 0.53 0.55 0.71 0.85 1.06 1.26 1.37 1.25 1.09 0.95 0.88 0.86 0.88 0.86 0.75 0.70 0.67 0.70 0.73 0.68 0.76 1.01 1.17 1.16 1.15 1.30 1.29 1.25 1.25 1.22 1.25 1.29 1.15 0.93 0.80
0.45 0.59 0.59 0.55 0.71 1.00 1.17 1.29 1.45 1.50 1.29 1.01 0.87 0.78 0.70 0.66 0.64 0.64 0.59 0.54 0.51 0.50 0.47 0.57 0.82 0.97 1.01 1.03 1.13 1.15 1.28 1.46 1.38 1.36 1.28 1.17 1.06 0.93
0.37 0.55 0.69 0.73 0.89 1.18 1.39 1.49 1.54 1.44 1.18 0.95 0.81 0.72 0.63 0.58 0.60 0.56 0.56 0.52 0.54 0.58 0.52 0.52 0.63 0.77 0.91 0.91 0.98 1.07 1.18 1.59 1.63 1.41 1.29 1.26 1.17 1.05
0.34 0.51 0.70 0.80 1.00 1.22 1.34 1.35 1.30 1.20 1.10 0.92 0.76 0.68 0.65 0.61 0.59 0.53 0.51 0.46 0.50 0.55 0.55 0.55 0.59 0.63 0.69 0.75 0.89 1.02 1.16 1.39 1.47 1.25 1.11 1.23 1.27 1.13
0.38 0.59 0.77 0.86 1.01 1.13 1.20 1.16 1.07 0.98 0.89 0.81 0.73 0.66 0.62 0.59 0.57 0.50 0.45 0.43 0.48 0.48 0.46 0.44 0.42 0.42 0.50 0.67 0.89 0.96 1.00 1.17 1.19 1.03 0.85 0.95 1.20 1.18
0.41 0.62 0.79 0.90 1.00 1.04 1.04 0.98 0.92 0.86 0.76 0.69 0.65 0.60 0.54 0.50 0.48 0.43 0.39 0.40 0.40 0.38 0.35 0.30 0.26 0.22 0.33 0.69 0.96 1.02 0.93 0.93 0.91 0.86 0.79 0.79 1.02 1.14
0.47 0.63 0.74 0.79 0.86 0.90 0.87 0.85 0.81 0.73 0.65 0.61 0.60 0.57 0.48 0.42 0.39 0.36 0.34 0.31 0.30 0.27 0.24 0.22 0.21 0.21 0.28 0.51 0.89 1.09 0.94 0.71 0.62 0.66 0.69 0.74 0.87 0.94
0.48 0.57 0.65 0.68 0.71 0.73 0.71 0.67 0.66 0.62 0.55 0.51 0.51 0.51 0.48 0.41 0.34 0.27 0.23 0.18 0.19 0.22 0.24 0.27 0.27 0.21 0.19 0.24 0.52 0.78 0.81 0.75 0.57 0.49 0.49 0.53 0.57 0.53
0.44 0.52 0.54 0.53 0.53 0.54 0.52 0.47 0.47 0.47 0.45 0.44 0.43 0.42 0.40 0.34 0.27 0.22 0.18 0.16 0.16 0.16 0.18 0.21 0.18 0.14 0.15 0.21 0.37 0.54 0.59 0.53 0.47 0.43 0.43 0.39 0.35 0.43
0.38 0.40 0.43 0.43 0.39 0.37 0.37 0.36 0.37 0.38 0.37 0.38 0.36 0.35 0.32 0.27 0.21 0.16 0.13 0.11 0.09 0.09 0.10 0.14 0.14 0.12 0.12 0.15 0.21 0.29 0.32 0.30 0.26 0.29 0.41 0.48 0.44 0.51